Temperature
-2 -1 -2 -2 -2 -2 -3 -2 -2 -2 -3 -2 -3 -4 -4 -4 -4 -4 -4 -4 -4 -4 -4 -4 -4 -3 -3 -3 -3 -3 -2 -2 -2 -2 -2 -2 -2 -1 -1 -1 -1 -1 -1 -1
-3 -2 -2 -2 -2 -2 -3 -3 -3 -3 -3 -3 -4 -4 -4 -5 -5 -5 -5 -5 -5 -5 -4 -4 -4 -4 -4 -3 -3 -3 -3 -3 -3 -2 -2 -2 -2 -2 -2 -2 -2 -2 -1 -1
-3 -3 -2 -2 -3 -3 -3 -4 -4 -4 -4 -4 -5 -5 -5 -5 -5 -6 -6 -6 -5 -5 -5 -5 -5 -5 -4 -4 -4 -4 -4 -3 -3 -3 -3 -2 -2 -2 -2 -2 -2 -2 -2 -2
-3 -3 -2 -2 -3 -4 -4 -4 -5 -5 -5 -5 -6 -5 -5 -5 -6 -6 -6 -6 -6 -5 -5 -5 -5 -5 -5 -4 -4 -4 -4 -4 -4 -3 -3 -3 -3 -3 -3 -3 -3 -3 -3 -3
-4 -4 -3 -2 -3 -4 -4 -4 -5 -6 -6 -6 -6 -6 -6 -6 -6 -6 -6 -6 -6 -6 -6 -6 -6 -5 -5 -5 -5 -5 -5 -4 -4 -4 -4 -4 -3 -3 -3 -3 -3 -3 -3 -3
-4 -4 -3 -3 -4 -4 -4 -4 -5 -6 -6 -7 -7 -7 -6 -6 -7 -7 -6 -6 -6 -6 -6 -6 -6 -6 -6 -6 -5 -5 -5 -5 -5 -5 -4 -4 -4 -4 -4 -4 -4 -4 -4 -4
-5 -5 -4 -5 -5 -4 -4 -4 -5 -5 -6 -7 -7 -7 -7 -7 -7 -7 -7 -7 -7 -7 -7 -7 -7 -7 -6 -6 -6 -6 -6 -6 -6 -5 -5 -5 -5 -5 -5 -5 -5 -4 -4 -4
-5 -5 -4 -5 -6 -5 -5 -5 -5 -5 -6 -6 -7 -7 -7 -7 -7 -7 -7 -7 -7 -7 -7 -7 -7 -7 -7 -7 -7 -7 -7 -6 -6 -6 -6 -6 -5 -5 -5 -5 -5 -5 -5 -5
-5 -5 -5 -6 -6 -5 -5 -6 -6 -6 -7 -7 -7 -8 -8 -8 -8 -8 -8 -8 -8 -8 -8 -8 -8 -8 -8 -7 -7 -7 -7 -7 -7 -7 -6 -6 -6 -6 -6 -6 -6 -6 -6 -5
-6 -6 -6 -6 -6 -6 -6 -6 -6 -7 -7 -7 -8 -8 -9 -9 -9 -9 -9 -9 -9 -8 -8 -8 -8 -8 -8 -8 -8 -8 -7 -7 -7 -7 -7 -7 -7 -7 -7 -7 -7 -7 -6 -6
-7 -7 -7 -6 -6 -6 -7 -7 -7 -7 -8 -8 -8 -9 -9 -9 -9 -9 -9 -9 -9 -9 -9 -9 -9 -9 -9 -9 -8 -8 -8 -8 -8 -8 -8 -8 -8 -8 -8 -8 -8 -7 -7 -7
-7 -6 -7 -7 -7 -7 -7 -8 -8 -8 -8 -9 -9 -9 -9 -10 -10 -10 -10 -10 -10 -9 -9 -9 -9 -9 -9 -9 -9 -9 -9 -8 -8 -8 -8 -8 -8 -8 -8 -8 -8 -8 -8 -8
-7 -7 -7 -7 -8 -8 -8 -8 -9 -9 -9 -9 -9 -10 -10 -10 -10 -10 -10 -10 -10 -10 -10 -10 -10 -10 -10 -10 -9 -9 -9 -9 -9 -9 -9 -9 -9 -9 -9 -9 -9 -9 -9 -8
-8 -8 -8 -8 -9 -9 -9 -9 -9 -9 -9 -10 -10 -10 -10 -10 -10 -10 -10 -10 -10 -10 -10 -10 -10 -10 -10 -10 -10 -10 -10 -10 -10 -9 -9 -9 -9 -9 -10 -9 -9 -9 -9 -9
-8 -8 -9 -9 -9 -10 -10 -10 -10 -10 -10 -10 -10 -10 -10 -10 -11 -11 -11 -11 -10 -10 -10 -10 -10 -10 -10 -10 -10 -10 -10 -10 -10 -10 -10 -10 -10 -10 -10 -10 -10 -10 -10 -9
-9 -9 -9 -10 -10 -10 -10 -10 -11 -11 -11 -11 -11 -11 -11 -11 -11 -11 -11 -11 -11 -11 -11 -11 -11 -11 -11 -11 -11 -10 -11 -11 -10 -10 -10 -10 -10 -10 -10 -10 -10 -10 -10 -10
-10 -10 -10 -10 -11 -11 -11 -11 -11 -11 -11 -11 -11 -11 -11 -11 -11 -11 -11 -11 -11 -11 -11 -11 -11 -11 -11 -11 -11 -11 -11 -11 -11 -11 -11 -11 -11 -11 -11 -11 -11 -11 -11 -11
-10 -10 -10 -11 -11 -11 -11 -11 -11 -11 -11 -11 -11 -11 -11 -11 -12 -12 -12 -12 -12 -12 -12 -12 -12 -12 -12 -11 -11 -11 -11 -11 -11 -11 -11 -11 -11 -11 -11 -11 -11 -11 -11 -11
-10 -11 -11 -11 -11 -11 -11 -12 -12 -12 -12 -12 -12 -12 -12 -12 -12 -12 -12 -12 -12 -12 -12 -12 -12 -12 -12 -12 -12 -12 -12 -12 -12 -12 -12 -12 -11 -11 -12 -12 -12 -11 -11 -11
-11 -11 -11 -11 -11 -12 -12 -12 -12 -12 -12 -12 -12 -12 -12 -12 -13 -13 -13 -13 -13 -13 -13 -13 -12 -12 -12 -12 -12 -12 -12 -12 -12 -12 -12 -12 -12 -12 -12 -12 -12 -12 -12 -12
-11 -12 -12 -12 -12 -12 -12 -12 -12 -12 -13 -13 -13 -13 -13 -13 -13 -13 -13 -13 -13 -13 -13 -13 -13 -13 -13 -13 -13 -13 -13 -13 -13 -13 -13 -12 -12 -12 -12 -12 -12 -12 -12 -12
-12 -12 -12 -12 -12 -12 -12 -13 -13 -13 -13 -13 -13 -13 -13 -13 -13 -13 -13 -13 -13 -13 -13 -13 -13 -13 -13 -13 -13 -13 -13 -13 -13 -13 -13 -13 -13 -13 -13 -13 -13 -13 -13 -13
-12 -12 -12 -12 -13 -13 -13 -13 -13 -13 -13 -13 -13 -13 -14 -13 -14 -14 -14 -13 -14 -14 -14 -13 -14 -14 -14 -14 -13 -13 -14 -14 -14 -14 -14 -14 -14 -14 -13 -13 -13 -13 -13 -13
-12 -12 -13 -13 -13 -13 -13 -13 -14 -14 -14 -14 -14 -14 -14 -14 -14 -14 -14 -14 -14 -14 -14 -14 -14 -14 -14 -14 -14 -14 -14 -14 -14 -14 -14 -14 -14 -14 -14 -14 -14 -14 -14 -14
-13 -13 -13 -13 -13 -13 -14 -14 -14 -14 -14 -14 -14 -14 -14 -14 -14 -14 -14 -14 -14 -14 -14 -14 -14 -14 -14 -14 -14 -14 -14 -14 -14 -14 -14 -14 -14 -14 -14 -14 -14 -14 -14 -14
-13 -13 -13 -14 -14 -14 -14 -14 -14 -15 -15 -15 -14 -15 -15 -15 -14 -14 -14 -14 -14 -14 -14 -14 -14 -14 -14 -14 -14 -15 -15 -15 -15 -15 -15 -15 -15 -15 -14 -14 -14 -14 -14 -14
-13 -13 -14 -14 -14 -14 -14 -15 -15 -15 -15 -15 -15 -15 -15 -15 -15 -15 -15 -15 -15 -15 -15 -15 -15 -15 -15 -15 -15 -15 -15 -15 -15 -15 -15 -15 -15 -15 -15 -15 -14 -14 -14 -14
Wind_Speed
8 7 4 6 7 6 8 8 9 9 9 9 6 6 6 6 6 6 7 7 7 7 7 7 7 7 6 6 5 4 3 3 4 4 4 3 4 4 4 4 5 5 5 5
5 4 4 7 8 9 10 8 10 10 10 6 5 3 4 5 6 7 8 9 8 8 8 8 8 8 7 7 6 5 4 4 4 3 2 2 3 3 2 3 3 4 4 5
4 4 4 7 7 7 5 4 5 8 8 5 5 6 5 5 5 7 8 8 8 8 8 8 8 7 7 7 6 5 5 5 4 3 3 2 2 1 2 2 2 3 4 4
3 3 5 6 1 4 4 4 5 5 5 4 5 6 5 3 3 6 7 7 8 8 8 8 8 7 7 6 5 5 5 5 5 4 3 3 2 2 2 2 2 2 3 3
2 3 7 5 2 1 3 4 3 4 5 4 4 3 3 3 4 5 5 6 7 7 7 7 7 7 6 6 6 6 6 6 5 4 3 3 2 3 2 2 2 2 2 2
2 3 6 5 3 2 2 3 2 2 4 4 3 3 4 5 6 6 6 6 6 6 6 7 8 6 6 6 6 6 6 6 6 4 3 3 3 3 2 2 2 2 2 1
5 5 7 4 3 1 1 5 4 2 3 3 3 4 5 5 6 5 6 6 6 6 6 7 7 6 6 6 7 7 7 6 5 5 4 3 3 3 2 2 2 2 2 2
3 4 7 1 2 2 4 3 3 3 3 3 4 4 4 4 5 6 6 6 6 6 7 7 7 5 6 7 7 7 6 6 6 5 4 4 3 3 3 2 2 2 2 2
5 5 3 1 2 3 2 3 3 3 3 2 3 4 4 4 5 5 5 6 5 5 6 7 7 6 6 7 7 7 6 6 6 6 5 4 3 3 3 3 2 2 2 2
4 6 4 3 3 3 2 3 4 3 3 1 3 4 4 4 4 5 5 6 6 6 6 7 7 7 6 7 7 6 6 6 5 5 5 5 4 3 3 3 2 2 2 2
5 5 5 4 4 4 4 4 4 3 2 2 2 3 4 4 4 4 5 6 5 5 6 7 7 7 8 7 6 6 6 5 5 5 4 4 4 3 3 3 3 3 2 2
5 4 4 6 5 3 3 4 3 3 3 3 2 3 3 4 4 4 4 5 5 5 6 6 7 7 7 7 6 5 5 5 4 4 4 4 4 4 6 6 7 7 5 4
5 5 4 5 4 3 3 4 4 3 3 3 3 2 3 3 4 4 4 5 5 5 5 6 6 7 7 7 6 5 4 5 4 4 4 3 3 3 4 5 7 8 8 7
4 3 4 4 4 4 4 4 3 3 3 3 3 3 3 3 3 4 5 5 5 5 5 5 6 6 7 7 6 5 5 5 5 3 3 3 3 3 3 3 4 5 7 8
5 3 3 4 4 4 4 4 4 4 4 3 3 3 3 3 4 5 5 5 5 4 5 5 6 7 7 6 6 6 5 4 4 3 3 3 3 3 3 3 3 4 4 6
5 4 3 3 4 4 4 4 4 5 4 4 4 4 3 3 4 4 4 4 4 5 5 5 6 6 6 6 6 5 4 6 6 4 3 3 3 3 3 3 3 3 4 4
4 4 4 5 5 5 5 4 4 4 4 4 4 4 3 3 3 4 4 4 4 4 5 5 6 6 5 5 5 4 4 5 6 4 3 3 3 3 3 3 3 3 3 4
3 3 3 3 3 4 5 5 4 4 4 4 4 3 2 2 3 4 5 5 4 5 5 5 5 5 5 5 4 4 3 3 3 3 3 3 3 3 3 3 3 4 4 4
4 3 4 3 3 3 4 4 4 4 4 3 3 3 3 3 3 4 4 4 4 5 6 6 8 6 5 6 5 3 3 4 4 4 3 4 4 3 3 3 3 4 4 4
5 4 4 4 4 3 4 4 4 4 4 3 3 3 3 4 3 4 3 3 3 4 5 6 5 4 5 5 5 3 3 3 3 3 4 3 3 3 3 4 4 4 4 4
5 5 5 5 5 5 4 4 3 4 4 4 3 3 4 4 4 3 3 4 4 4 5 6 4 4 4 4 5 3 3 3 3 3 3 4 4 4 4 4 4 4 4 4
5 5 5 5 5 5 5 4 3 4 4 4 4 4 4 4 4 4 3 3 5 7 5 3 3 5 6 5 3 2 3 3 3 3 3 3 4 4 4 4 4 4 4 4
4 4 5 5 5 5 5 4 3 3 4 4 4 4 4 4 3 3 4 4 4 7 5 3 6 8 7 4 3 3 3 3 3 3 3 4 4 4 4 5 5 5 5 5
4 4 5 4 4 4 4 5 4 4 4 4 4 4 4 4 4 3 3 7 8 7 4 6 8 8 7 3 3 3 3 3 4 4 4 4 4 4 4 5 5 5 5 6
4 4 4 4 4 4 4 5 4 4 4 4 4 4 3 3 3 4 4 5 7 7 4 6 8 8 5 3 3 3 3 4 4 4 4 4 4 4 5 5 5 5 6 6
4 4 4 4 3 3 3 3 4 4 4 4 5 4 4 3 4 4 4 4 5 7 5 4 5 6 4 4 4 4 4 5 5 5 5 5 5 5 5 5 7 6 6 6
4 3 3 4 4 3 3 3 4 4 4 4 5 5 4 4 4 4 4 4 4 4 4 4 4 4 4 4 5 5 5 5 5 5 5 5 5 6 6 7 7 7 7 7
Wind_Direction
259 268 253 247 252 222 214 219 228 251 257 278 294 296 305 315 324 335 337 338 335 330 328 328 327 325 326 327 331 327 317 307 296 286 268 252 242 239 230 226 228 224 213 220
282 265 256 267 262 239 235 237 243 263 274 279 296 301 315 319 325 332 331 332 332 330 330 328 327 327 328 328 331 330 326 317 318 316 300 268 254 252 244 234 228 219 214 218
271 297 316 273 251 222 220 222 215 241 256 296 320 315 304 304 317 322 320 327 330 329 324 321 318 320 320 321 329 332 330 331 330 328 320 304 296 282 271 258 246 233 222 216
273 345 254 249 189 193 206 242 229 245 277 287 277 294 291 284 313 320 322 326 326 326 325 322 322 324 323 327 332 332 331 332 335 334 328 326 326 303 289 287 266 248 238 220
223 258 274 290 291 207 211 263 255 252 287 307 312 326 313 332 337 314 312 315 315 319 319 323 326 329 330 334 338 340 335 330 330 328 326 322 320 313 311 306 296 274 257 230
206 232 248 269 297 297 144 279 294 255 280 307 346 325 296 329 333 324 323 323 323 327 331 334 334 338 343 339 340 333 326 324 326 327 326 318 315 316 324 312 299 301 312 302
223 238 262 278 305 61 151 275 308 288 281 284 266 259 283 310 321 321 322 326 331 336 339 336 337 344 347 342 333 325 330 333 338 337 331 331 339 342 340 325 331 337 325 319
203 225 261 323 90 179 244 295 306 299 287 277 281 292 299 311 318 323 329 333 339 342 340 338 342 348 347 337 329 333 340 344 344 344 342 347 355 350 349 349 347 334 329 326
210 227 278 205 226 276 294 291 292 288 287 274 289 295 308 313 318 325 330 334 339 340 339 341 345 349 342 332 333 340 348 349 347 348 352 354 355 356 356 357 348 325 323 322
259 269 279 280 295 313 305 286 293 289 283 266 279 292 308 313 325 334 338 339 342 345 344 341 341 344 338 332 336 344 349 349 350 354 356 360 358 358 359 352 344 333 331 324
262 289 312 294 290 305 319 322 324 324 303 270 269 290 300 311 317 324 331 337 343 343 339 335 337 340 341 340 340 347 348 350 353 356 355 358 2 3 360 355 344 339 324 316
262 281 275 294 308 319 321 317 315 324 326 316 282 286 302 309 313 317 325 330 335 335 335 333 337 339 340 339 340 346 349 350 351 353 354 357 356 358 2 2 360 358 353 342
282 316 304 308 327 334 320 314 317 315 306 311 311 295 298 303 312 320 323 326 325 323 325 328 334 337 338 337 341 348 345 342 342 348 350 349 352 357 356 357 6 9 6 2
314 336 322 323 327 334 337 338 344 345 336 324 319 321 318 314 319 321 319 319 321 322 326 330 334 335 333 336 344 348 345 346 346 341 341 343 346 349 351 353 352 353 356 2
335 327 295 312 333 342 351 356 356 347 345 341 335 329 322 315 313 314 317 324 332 335 333 334 334 332 335 341 347 346 344 341 339 339 341 345 349 352 354 355 354 348 349 353
330 337 337 339 338 344 350 350 343 332 331 328 326 323 315 310 314 321 328 334 336 332 329 328 326 325 333 339 342 341 339 347 350 345 347 351 353 354 355 355 355 355 354 349
335 334 336 334 334 334 331 327 322 319 320 319 315 313 322 331 334 335 334 331 323 317 317 319 317 323 331 334 334 331 332 338 348 349 351 349 351 352 350 348 348 346 342 343
301 303 309 309 315 319 321 325 324 325 323 315 316 323 330 325 316 316 320 324 330 332 327 320 319 328 331 333 333 328 329 332 338 340 343 342 346 347 347 347 345 341 336 340
342 338 333 331 325 321 322 325 327 329 328 330 331 326 316 308 305 311 318 327 331 328 323 322 331 339 330 330 338 331 334 337 340 339 337 338 345 345 344 339 334 331 329 332
349 350 347 345 345 341 329 329 333 334 335 335 335 334 331 325 324 322 322 316 302 294 301 315 323 325 325 324 332 332 338 338 336 333 335 336 333 331 329 328 327 325 324 324
344 345 345 343 340 339 334 335 338 335 336 339 333 323 317 318 321 321 321 317 315 316 319 323 329 322 321 324 330 336 332 329 327 325 325 326 324 321 319 319 319 319 318 316
337 338 337 337 337 335 334 335 331 327 331 334 329 324 323 323 323 318 301 291 306 321 329 314 313 321 331 335 335 331 326 323 319 317 315 316 316 314 314 313 310 309 310 308
329 330 332 331 327 322 327 333 331 330 327 325 321 317 311 306 309 311 315 312 313 321 329 314 322 329 336 344 339 329 322 316 311 307 305 304 303 301 302 303 303 303 303 304
331 332 329 325 326 335 337 333 331 329 320 315 315 313 309 310 313 303 300 316 326 327 327 325 332 335 339 345 331 321 312 307 303 300 298 297 296 296 296 297 299 300 298 296
324 325 330 336 337 330 324 328 332 332 331 327 322 319 313 306 303 310 314 317 324 331 330 328 332 334 335 325 318 311 306 299 298 300 298 297 294 293 292 292 291 293 294 293
322 321 319 319 318 319 326 330 330 328 329 327 326 324 322 318 312 312 314 317 319 326 329 322 321 322 322 317 311 308 305 305 307 305 298 296 293 292 290 291 290 288 287 287
326 326 326 328 329 329 327 324 320 320 320 315 314 318 322 323 322 322 321 321 321 319 319 319 317 314 313 313 311 308 304 301 299 298 296 292 290 288 287 285 285 285 285 285
Height
1509 1506 1506 1506 1505 1505 1507 1504 1503 1495 1494 1488 1487 1485 1482 1479 1477 1474 1471 1468 1465 1463 1460 1457 1454 1451 1449 1447 1445 1444 1443 1441 1441 1441 1440 1441 1441 1441 1442 1443 1443 1444 1444 1446
1509 1504 1504 1502 1499 1499 1500 1500 1498 1494 1491 1486 1485 1483 1481 1478 1476 1473 1470 1467 1464 1462 1459 1456 1453 1450 1447 1446 1444 1442 1440 1439 1438 1437 1437 1437 1437 1437 1437 1438 1439 1439 1440 1441
1508 1505 1502 1500 1495 1495 1496 1495 1495 1493 1489 1485 1484 1482 1479 1477 1476 1473 1470 1467 1464 1461 1458 1455 1452 1449 1447 1444 1442 1440 1439 1437 1436 1435 1434 1434 1434 1434 1433 1434 1434 1434 1435 1437
1510 1508 1504 1492 1490 1490 1491 1491 1491 1488 1486 1484 1483 1480 1478 1477 1475 1472 1469 1466 1463 1460 1457 1454 1452 1449 1446 1444 1441 1439 1437 1436 1434 1433 1432 1432 1431 1431 1431 1430 1430 1431 1431 1432
1510 1510 1501 1491 1490 1490 1491 1489 1487 1486 1484 1482 1481 1478 1476 1475 1473 1471 1468 1465 1463 1460 1457 1454 1450 1447 1444 1442 1440 1438 1436 1434 1433 1432 1431 1430 1429 1428 1428 1427 1427 1427 1428 1428
1510 1507 1503 1491 1489 1487 1489 1488 1484 1483 1482 1481 1480 1480 1476 1474 1471 1469 1467 1464 1461 1458 1455 1452 1449 1446 1444 1441 1438 1436 1435 1433 1431 1430 1429 1428 1427 1426 1426 1425 1425 1425 1424 1425
1508 1507 1497 1491 1488 1487 1492 1488 1483 1481 1480 1480 1479 1478 1475 1472 1470 1468 1465 1463 1460 1457 1454 1451 1448 1445 1442 1440 1437 1436 1434 1432 1430 1429 1428 1427 1426 1425 1424 1423 1423 1422 1422 1422
1505 1506 1498 1489 1489 1490 1488 1483 1482 1480 1479 1478 1476 1474 1472 1470 1468 1466 1463 1461 1458 1455 1452 1450 1447 1444 1441 1439 1437 1435 1432 1430 1429 1428 1426 1425 1424 1423 1422 1421 1421 1420 1420 1420
1499 1496 1490 1487 1486 1485 1484 1482 1480 1479 1477 1475 1473 1472 1470 1468 1466 1464 1462 1459 1457 1454 1452 1449 1446 1443 1440 1438 1436 1434 1432 1429 1428 1426 1425 1424 1422 1421 1420 1420 1419 1418 1418 1417
1496 1490 1487 1486 1484 1483 1482 1480 1478 1477 1475 1473 1471 1469 1468 1466 1464 1462 1460 1458 1456 1453 1450 1448 1445 1443 1440 1438 1436 1433 1430 1428 1427 1425 1424 1423 1421 1420 1419 1419 1418 1417 1417 1416
1493 1488 1485 1483 1482 1481 1479 1478 1476 1474 1473 1471 1469 1467 1466 1465 1463 1461 1459 1457 1455 1452 1449 1447 1445 1442 1440 1437 1435 1432 1430 1428 1426 1424 1423 1422 1421 1420 1419 1418 1418 1417 1416 1415
1490 1486 1485 1482 1480 1479 1477 1475 1473 1471 1470 1469 1468 1466 1464 1463 1461 1460 1458 1456 1454 1451 1449 1446 1444 1442 1440 1437 1435 1432 1429 1427 1425 1424 1422 1421 1420 1419 1418 1417 1417 1416 1415 1414
1488 1485 1483 1481 1479 1477 1475 1473 1471 1469 1468 1466 1465 1464 1463 1461 1460 1458 1456 1455 1452 1450 1448 1445 1443 1441 1439 1437 1434 1432 1429 1427 1425 1424 1422 1420 1419 1417 1416 1416 1415 1414 1412 1411
1486 1484 1481 1479 1477 1475 1473 1471 1470 1468 1466 1465 1463 1462 1461 1459 1458 1456 1455 1453 1451 1448 1446 1444 1442 1440 1438 1436 1434 1431 1429 1427 1426 1424 1422 1420 1418 1417 1415 1414 1413 1411 1411 1410
1484 1482 1480 1478 1476 1474 1472 1470 1467 1466 1464 1463 1462 1460 1459 1457 1456 1455 1453 1451 1449 1447 1445 1443 1441 1439 1437 1435 1433 1431 1429 1427 1425 1423 1422 1420 1418 1416 1415 1413 1412 1411 1410 1408
1482 1480 1478 1476 1474 1472 1470 1468 1466 1464 1462 1461 1460 1458 1457 1456 1455 1453 1451 1450 1448 1445 1444 1442 1440 1438 1436 1434 1432 1430 1428 1427 1425 1423 1421 1419 1418 1416 1414 1413 1412 1410 1409 1408
1481 1478 1476 1474 1472 1471 1469 1467 1465 1463 1461 1459 1458 1457 1456 1454 1453 1451 1450 1448 1446 1445 1443 1441 1439 1437 1436 1434 1432 1430 1428 1426 1424 1423 1421 1419 1417 1416 1414 1413 1411 1410 1409 1408
1481 1478 1476 1474 1472 1470 1468 1466 1464 1462 1460 1458 1457 1456 1454 1453 1451 1449 1448 1446 1445 1443 1442 1440 1438 1436 1434 1432 1431 1429 1427 1425 1424 1422 1420 1419 1417 1416 1414 1413 1411 1410 1408 1407
1479 1477 1475 1473 1471 1469 1467 1464 1462 1461 1459 1457 1456 1454 1453 1451 1450 1448 1446 1445 1443 1441 1440 1438 1437 1435 1433 1431 1429 1428 1426 1424 1423 1421 1420 1418 1416 1415 1413 1412 1410 1409 1407 1406
1478 1475 1474 1472 1470 1468 1466 1463 1461 1459 1458 1456 1454 1452 1451 1450 1448 1447 1445 1443 1442 1440 1438 1437 1435 1433 1431 1430 1428 1426 1425 1423 1422 1420 1418 1417 1415 1413 1412 1410 1409 1407 1405 1404
1476 1474 1472 1470 1468 1467 1464 1462 1460 1458 1456 1455 1453 1451 1450 1448 1447 1445 1443 1441 1440 1439 1437 1435 1433 1431 1430 1428 1427 1425 1423 1422 1420 1418 1417 1415 1413 1412 1410 1408 1407 1405 1403 1402
1475 1473 1471 1469 1467 1465 1463 1461 1459 1457 1455 1453 1451 1450 1448 1446 1445 1443 1442 1440 1438 1437 1435 1433 1431 1430 1428 1426 1424 1423 1421 1420 1418 1416 1415 1413 1411 1410 1408 1406 1405 1403 1401 1400
1474 1472 1470 1468 1466 1464 1462 1460 1458 1456 1453 1451 1450 1448 1447 1445 1443 1441 1439 1438 1436 1435 1433 1431 1429 1428 1426 1424 1422 1420 1419 1417 1415 1414 1412 1411 1409 1407 1406 1404 1402 1400 1398 1397
1473 1471 1469 1467 1465 1462 1460 1458 1456 1454 1452 1450 1448 1447 1445 1443 1441 1440 1438 1436 1434 1432 1430 1429 1427 1425 1423 1421 1419 1418 1416 1414 1413 1411 1409 1408 1406 1404 1402 1400 1399 1397 1395 1393
1472 1470 1467 1465 1463 1461 1459 1457 1454 1452 1450 1448 1447 1445 1443 1441 1440 1438 1436 1434 1432 1430 1428 1426 1424 1423 1420 1418 1417 1415 1413 1411 1409 1408 1406 1404 1402 1400 1398 1397 1395 1393 1391 1389
1470 1468 1466 1464 1462 1460 1458 1455 1453 1451 1449 1446 1445 1443 1441 1439 1437 1435 1433 1431 1429 1427 1425 1423 1421 1419 1417 1415 1413 1411 1409 1408 1406 1404 1402 1400 1398 1396 1394 1392 1390 1388 1386 1384
1468 1466 1464 1462 1460 1458 1456 1454 1452 1449 1447 1445 1443 1441 1439 1437 1435 1433 1431 1429 1427 1425 1423 1421 1419 1416 1414 1412 1410 1408 1406 1404 1402 1400 1398 1396 1394 1392 1390 1388 1386 1384 1382 1380